UAE1760 EGNT-OMDB

Flight info

Callsign UAE1760
Flight time N/A
Altitude 37000
Route GIRLI P18 GASKO UY250 MAMUL L603 LAMSO DCT HMM DCT NOMKA DCT OMELO DCT BALAP/N0476F390 DCT BUDOP DCT RONBU DCT ARTAT UP975 ERGUN UL124 BONAM L319 DASDO L223 LAM G666 ORSAR R784 TATLA L223 VUTEB
Aircraft A333/H-SDE3GHIJ2J3J5M1RVWXY/LB2D1

Departure

Time N/A
Airport Newcastle International Airport (EGNT)

Arrival

Time 2026-04-21 20:47
Airport Dubai International Airport (OMDB)
Time Latitude Longitude Altitude Speed Heading
2026-04-21 15:30 52.94316 1.30796 37390 ft 495 kts 99°
2026-04-21 15:30 52.93658 1.36410 37387 ft 496 kts 99°
2026-04-21 15:31 52.92330 1.47655 37390 ft 498 kts 99°
2026-04-21 15:31 52.90989 1.58915 37385 ft 499 kts 99°
2026-04-21 15:32 52.89635 1.70201 37389 ft 499 kts 99°
2026-04-21 15:32 52.88172 1.82278 37386 ft 499 kts 99°
2026-04-21 15:33 52.86729 1.94082 37385 ft 499 kts 99°
2026-04-21 15:33 52.85341 2.05345 37383 ft 498 kts 99°
2026-04-21 15:34 52.83945 2.16575 37387 ft 498 kts 99°
2026-04-21 15:34 52.82542 2.27788 37381 ft 498 kts 99°
2026-04-21 15:35 52.81134 2.38924 37377 ft 498 kts 99°
2026-04-21 15:35 52.79710 2.50115 37376 ft 497 kts 99°
2026-04-21 15:36 52.78274 2.61297 37373 ft 497 kts 99°
2026-04-21 15:36 52.76827 2.72445 37371 ft 497 kts 100°
2026-04-21 15:37 52.75367 2.83606 37369 ft 497 kts 100°
2026-04-21 15:37 52.73917 2.94680 37365 ft 496 kts 100°
2026-04-21 15:38 52.72364 3.05766 37363 ft 497 kts 103°
2026-04-21 15:38 52.70499 3.16742 37358 ft 497 kts 103°
2026-04-21 15:39 52.68653 3.27725 37352 ft 496 kts 103°
2026-04-21 15:39 52.66831 3.38688 37351 ft 496 kts 103°
2026-04-21 15:40 52.64463 3.52899 37346 ft 496 kts 103°
2026-04-21 15:40 52.62931 3.61996 37349 ft 495 kts 103°
2026-04-21 15:41 52.61083 3.72912 37347 ft 495 kts 103°
2026-04-21 15:41 52.59225 3.83832 37342 ft 495 kts 103°
2026-04-21 15:42 52.57360 3.94727 37345 ft 494 kts 103°
2026-04-21 15:42 52.55488 4.05587 37342 ft 494 kts 103°
2026-04-21 15:43 52.53619 4.16363 37333 ft 494 kts 103°
2026-04-21 15:43 52.51717 4.27278 37329 ft 493 kts 104°
2026-04-21 15:44 52.49178 4.41712 37323 ft 492 kts 104°
2026-04-21 15:44 52.47268 4.52505 37326 ft 492 kts 104°
2026-04-21 15:45 52.45351 4.63279 37320 ft 492 kts 104°
2026-04-21 15:45 52.43427 4.74024 37316 ft 492 kts 104°
2026-04-21 15:46 52.41546 4.84459 37323 ft 492 kts 104°
2026-04-21 15:46 52.39603 4.95191 37322 ft 492 kts 104°
2026-04-21 15:47 52.36861 5.10214 37328 ft 491 kts 104°
2026-04-21 15:47 52.34895 5.20919 37312 ft 491 kts 104°
2026-04-21 15:48 52.32919 5.31618 37316 ft 491 kts 105°
2026-04-21 15:48 52.30936 5.42285 37316 ft 491 kts 105°
2026-04-21 15:49 52.28941 5.52955 37312 ft 491 kts 105°
2026-04-21 15:49 52.26941 5.63600 37312 ft 491 kts 105°
2026-04-21 15:50 52.22871 5.85058 37293 ft 490 kts 105°
2026-04-21 15:50 52.20846 5.95654 37290 ft 490 kts 105°
2026-04-21 15:51 52.18802 6.06278 37290 ft 490 kts 105°
2026-04-21 15:51 52.16755 6.16866 37292 ft 490 kts 105°
2026-04-21 15:52 52.14698 6.27444 37288 ft 490 kts 105°
2026-04-21 15:52 52.12630 6.38019 37291 ft 490 kts 105°
2026-04-21 15:53 52.10554 6.48578 37287 ft 490 kts 106°
2026-04-21 15:53 52.08470 6.59119 37288 ft 490 kts 106°
2026-04-21 15:54 52.06377 6.69653 37288 ft 490 kts 106°
2026-04-21 15:54 52.04275 6.80171 37290 ft 489 kts 106°
2026-04-21 15:55 52.02165 6.90674 37291 ft 489 kts 106°
2026-04-21 15:55 52.00046 7.01164 37285 ft 489 kts 106°
2026-04-21 15:56 51.97919 7.11645 37283 ft 489 kts 106°
2026-04-21 15:56 51.95781 7.22115 37282 ft 489 kts 106°
2026-04-21 15:57 51.93637 7.32563 37281 ft 489 kts 107°
2026-04-21 15:57 51.91481 7.43012 37282 ft 489 kts 107°
2026-04-21 15:58 51.89318 7.53441 37286 ft 488 kts 107°
2026-04-21 15:58 51.87164 7.63798 37278 ft 488 kts 107°
2026-04-21 15:59 51.85031 7.74219 37274 ft 487 kts 103°
2026-04-21 15:59 51.83635 7.84900 37280 ft 485 kts 99°
2026-04-21 16:00 51.82331 7.95603 37276 ft 485 kts 100°
2026-04-21 16:00 51.80979 8.05781 37273 ft 485 kts 100°
2026-04-21 16:01 51.79520 8.16417 37274 ft 485 kts 101°
2026-04-21 16:01 51.78049 8.27058 37271 ft 485 kts 101°
2026-04-21 16:02 51.76572 8.37672 37340 ft 485 kts 101°
2026-04-21 16:02 51.75085 8.48288 37270 ft 484 kts 101°
2026-04-21 16:03 51.73589 8.58887 37275 ft 484 kts 101°
2026-04-21 16:03 51.72088 8.69463 37266 ft 485 kts 101°
2026-04-21 16:04 51.70572 8.80071 37268 ft 484 kts 101°
2026-04-21 16:04 51.69048 8.90649 37263 ft 484 kts 101°
2026-04-21 16:05 51.64844 9.19498 37233 ft 485 kts 101°
2026-04-21 16:05 51.62713 9.33869 37267 ft 484 kts 102°
2026-04-21 16:06 51.61139 9.44400 37267 ft 484 kts 102°
2026-04-21 16:06 51.59558 9.54927 37266 ft 484 kts 102°
2026-04-21 16:07 51.57968 9.65453 37268 ft 484 kts 102°
2026-04-21 16:07 51.56376 9.75930 37264 ft 485 kts 102°
2026-04-21 16:08 51.53958 9.91688 37264 ft 485 kts 102°
2026-04-21 16:09 51.52334 10.02194 37262 ft 485 kts 102°
2026-04-21 16:09 51.50698 10.12702 37263 ft 485 kts 102°
2026-04-21 16:10 51.49053 10.23204 37262 ft 485 kts 102°
2026-04-21 16:10 51.47399 10.33701 37260 ft 486 kts 102°
2026-04-21 16:11 51.45263 10.47172 37262 ft 486 kts 102°
2026-04-21 16:11 51.43593 10.57670 37263 ft 486 kts 102°
2026-04-21 16:12 51.42207 10.66402 37256 ft 486 kts 102°
2026-04-21 16:12 51.40259 10.78672 37272 ft 486 kts 102°
2026-04-21 16:13 51.38588 10.89103 37268 ft 486 kts 102°
2026-04-21 16:13 51.36895 10.99584 37257 ft 487 kts 103°
2026-04-21 16:14 51.35191 11.10071 37264 ft 487 kts 103°
2026-04-21 16:14 51.32281 11.27831 37266 ft 487 kts 103°
2026-04-21 16:15 51.28814 11.48751 37263 ft 487 kts 103°
2026-04-21 16:15 51.25307 11.69654 37254 ft 487 kts 103°
2026-04-21 16:16 51.21762 11.90528 37258 ft 488 kts 103°
2026-04-21 16:16 51.18174 12.11406 37255 ft 488 kts 103°
2026-04-21 16:17 51.14545 12.32272 37241 ft 489 kts 104°
2026-04-21 16:17 51.10880 12.53102 37240 ft 489 kts 104°
2026-04-21 16:18 51.07170 12.73943 37241 ft 489 kts 104°
2026-04-21 16:18 51.03423 12.94747 37237 ft 490 kts 104°
2026-04-21 16:19 50.99634 13.15552 37233 ft 491 kts 104°
2026-04-21 16:19 50.95799 13.36368 37232 ft 491 kts 104°
2026-04-21 16:20 50.91927 13.57151 37234 ft 492 kts 104°
2026-04-21 16:20 50.88013 13.77927 37231 ft 492 kts 105°
2026-04-21 16:21 50.83685 13.98350 37221 ft 495 kts 114°
2026-04-21 16:21 50.80170 14.07723 37214 ft 498 kts 125°
2026-04-21 16:21 50.75956 14.16396 37194 ft 498 kts 126°
2026-04-21 16:22 50.68929 14.31035 37223 ft 499 kts 126°
2026-04-21 16:22 50.59119 14.51311 37203 ft 500 kts 126°
2026-04-21 16:23 50.50914 14.68134 37200 ft 501 kts 126°
2026-04-21 16:23 50.42400 14.85476 37197 ft 502 kts 127°
2026-04-21 16:24 50.33828 15.02821 37193 ft 503 kts 127°
2026-04-21 16:24 50.25232 15.20099 37189 ft 504 kts 127°
2026-04-21 16:25 50.16592 15.37354 37188 ft 505 kts 127°
2026-04-21 16:25 50.07917 15.54568 37183 ft 505 kts 127°
2026-04-21 16:26 49.99254 15.71642 37186 ft 506 kts 128°
2026-04-21 16:26 49.90501 15.88785 37184 ft 507 kts 128°
2026-04-21 16:27 49.81707 16.05893 37176 ft 508 kts 128°
2026-04-21 16:27 49.72876 16.22965 37164 ft 508 kts 128°
2026-04-21 16:28 49.64010 16.39991 37155 ft 509 kts 129°
2026-04-21 16:28 49.56612 16.54115 37151 ft 510 kts 129°
2026-04-21 16:29 49.47671 16.71083 37143 ft 511 kts 129°
2026-04-21 16:29 49.38685 16.88029 37142 ft 511 kts 129°
2026-04-21 16:30 49.29669 17.04922 37141 ft 512 kts 129°
2026-04-21 16:30 49.20612 17.21784 37120 ft 513 kts 130°
2026-04-21 16:31 49.11517 17.38610 37113 ft 514 kts 130°
2026-04-21 16:31 49.02391 17.55385 37107 ft 514 kts 130°
2026-04-21 16:32 48.93043 17.72460 37102 ft 515 kts 130°
2026-04-21 16:32 48.88491 17.80734 37097 ft 515 kts 130°
2026-04-21 16:33 48.83886 17.89079 37100 ft 515 kts 130°
2026-04-21 16:33 48.79282 17.97395 37099 ft 516 kts 130°
2026-04-21 16:34 48.74690 18.05664 37097 ft 516 kts 131°
2026-04-21 16:34 48.70062 18.13972 37099 ft 516 kts 131°
2026-04-21 16:35 48.65463 18.22202 37097 ft 517 kts 131°
2026-04-21 16:35 48.60807 18.30509 37092 ft 517 kts 131°
2026-04-21 16:36 48.56174 18.38749 37086 ft 518 kts 131°
2026-04-21 16:36 48.51508 18.47021 37085 ft 518 kts 131°
2026-04-21 16:37 48.46827 18.55294 37089 ft 518 kts 131°
2026-04-21 16:37 48.42140 18.63552 37085 ft 519 kts 131°
2026-04-21 16:38 48.33186 18.79259 37090 ft 519 kts 131°
2026-04-21 16:38 48.28473 18.87487 37084 ft 520 kts 131°
2026-04-21 16:39 48.23754 18.95702 37083 ft 520 kts 131°
2026-04-21 16:39 48.19096 19.03785 37081 ft 520 kts 131°
2026-04-21 16:40 48.14361 19.11987 37074 ft 520 kts 132°
2026-04-21 16:40 48.09622 19.20177 37066 ft 521 kts 132°
2026-04-21 16:41 48.04898 19.28138 37086 ft 520 kts 133°
2026-04-21 16:41 48.00240 19.36011 37079 ft 521 kts 132°
2026-04-21 16:42 47.95468 19.44155 37077 ft 521 kts 132°
2026-04-21 16:42 47.90893 19.51880 37062 ft 521 kts 133°
2026-04-21 16:43 47.86205 19.59750 37042 ft 522 kts 133°
2026-04-21 16:43 47.81440 19.67722 37052 ft 522 kts 133°
2026-04-21 16:44 47.76715 19.75605 37053 ft 522 kts 133°
2026-04-21 16:44 47.71882 19.83644 37053 ft 522 kts 133°
2026-04-21 16:45 47.67039 19.91675 37055 ft 522 kts 133°
2026-04-21 16:45 47.62191 19.99692 37048 ft 522 kts 133°
2026-04-21 16:46 47.57337 20.07693 37044 ft 522 kts 133°
2026-04-21 16:46 47.52463 20.15704 37044 ft 523 kts 134°
2026-04-21 16:47 47.47624 20.23632 37047 ft 523 kts 134°
2026-04-21 16:47 47.42738 20.31614 37045 ft 524 kts 134°
2026-04-21 16:48 47.37896 20.39501 37047 ft 524 kts 134°
2026-04-21 16:48 47.32998 20.47457 37046 ft 524 kts 134°
2026-04-21 16:49 47.24656 20.60952 37047 ft 525 kts 134°
2026-04-21 16:49 47.19735 20.68878 37046 ft 525 kts 134°
2026-04-21 16:50 47.14796 20.76812 37044 ft 525 kts 134°
2026-04-21 16:50 47.09889 20.84670 37043 ft 525 kts 134°
2026-04-21 16:51 47.04944 20.92567 37041 ft 526 kts 134°
2026-04-21 16:51 46.99990 21.00454 37037 ft 526 kts 134°
2026-04-21 16:52 46.95070 21.08265 37039 ft 526 kts 135°
2026-04-21 16:52 46.90104 21.16124 37035 ft 526 kts 135°
2026-04-21 16:53 46.85131 21.23973 37030 ft 526 kts 135°
2026-04-21 16:53 46.77817 21.35475 37028 ft 526 kts 135°
2026-04-21 16:54 46.70827 21.46425 37023 ft 526 kts 135°
2026-04-21 16:54 46.66242 21.54725 37018 ft 528 kts 127°
2026-04-21 16:55 46.62044 21.63479 37019 ft 528 kts 127°
2026-04-21 16:55 46.57828 21.72219 37018 ft 528 kts 127°
2026-04-21 16:56 46.53590 21.80954 37029 ft 528 kts 127°
2026-04-21 16:56 46.49343 21.89667 37029 ft 528 kts 127°
2026-04-21 16:57 46.45093 21.98353 37023 ft 529 kts 127°
2026-04-21 16:57 46.40827 22.07043 36994 ft 529 kts 127°
2026-04-21 16:58 46.36573 22.15680 36988 ft 530 kts 127°
2026-04-21 16:58 46.29589 22.29806 37015 ft 530 kts 128°
2026-04-21 16:59 46.16833 22.55425 36970 ft 532 kts 128°
2026-04-21 16:59 46.11706 22.65654 36989 ft 533 kts 128°
2026-04-21 17:00 46.07360 22.74297 36990 ft 533 kts 128°
2026-04-21 17:00 46.03736 22.81485 36983 ft 534 kts 128°
2026-04-21 17:01 45.98630 22.91581 36985 ft 534 kts 128°
2026-04-21 17:01 45.94286 23.00140 36983 ft 534 kts 128°
2026-04-21 17:02 45.89900 23.08757 36981 ft 534 kts 128°
2026-04-21 17:02 45.85510 23.17356 36990 ft 534 kts 128°
2026-04-21 17:03 45.81114 23.25939 36995 ft 534 kts 128°
2026-04-21 17:03 45.76711 23.34509 37000 ft 534 kts 128°
2026-04-21 17:04 45.72304 23.43062 37003 ft 534 kts 128°
2026-04-21 17:04 45.67891 23.51600 37011 ft 534 kts 128°
2026-04-21 17:05 45.59273 23.68202 37011 ft 534 kts 128°
2026-04-21 17:05 45.54642 23.77086 37004 ft 533 kts 128°
2026-04-21 17:06 45.50214 23.85553 37004 ft 532 kts 128°
2026-04-21 17:06 45.45792 23.93985 37003 ft 530 kts 128°
2026-04-21 17:07 45.42125 24.00956 37008 ft 528 kts 128°
2026-04-21 17:07 45.37002 24.10665 37010 ft 527 kts 128°
2026-04-21 17:08 45.32594 24.18993 37011 ft 527 kts 129°
2026-04-21 17:08 45.28183 24.27303 37016 ft 526 kts 129°
2026-04-21 17:09 45.21569 24.39718 37026 ft 525 kts 129°
2026-04-21 17:09 45.17151 24.47981 37026 ft 526 kts 129°
2026-04-21 17:10 45.12767 24.56155 37036 ft 526 kts 129°
2026-04-21 17:10 45.08332 24.64404 37034 ft 526 kts 129°
2026-04-21 17:11 45.02422 24.75355 37039 ft 527 kts 129°
2026-04-21 17:11 44.97972 24.83576 37035 ft 527 kts 129°
2026-04-21 17:12 44.93508 24.91796 37044 ft 527 kts 129°
2026-04-21 17:12 44.89043 24.99996 37044 ft 527 kts 129°
2026-04-21 17:13 44.84570 25.08187 37043 ft 527 kts 130°
2026-04-21 17:13 44.80091 25.16366 37046 ft 527 kts 130°
2026-04-21 17:14 44.76369 25.23145 37047 ft 527 kts 130°
2026-04-21 17:14 44.71885 25.31290 37045 ft 525 kts 130°
2026-04-21 17:15 44.67402 25.39409 37049 ft 526 kts 130°
2026-04-21 17:15 44.62906 25.47528 37044 ft 526 kts 130°
2026-04-21 17:16 44.57544 25.57183 37046 ft 527 kts 130°
2026-04-21 17:16 44.53036 25.65274 37048 ft 527 kts 130°
2026-04-21 17:17 44.48272 25.73801 37047 ft 527 kts 130°
2026-04-21 17:17 44.43151 25.82939 37045 ft 527 kts 130°
2026-04-21 17:18 44.38616 25.91007 37050 ft 527 kts 130°
2026-04-21 17:18 44.34076 25.99062 37050 ft 527 kts 130°
2026-04-21 17:19 44.29558 26.07056 37050 ft 527 kts 130°
2026-04-21 17:19 44.24995 26.15104 37043 ft 526 kts 130°
2026-04-21 17:20 44.20449 26.23102 37045 ft 526 kts 131°
2026-04-21 17:20 44.15898 26.31087 37042 ft 526 kts 131°
2026-04-21 17:21 44.11368 26.39023 37047 ft 526 kts 131°
2026-04-21 17:21 44.06811 26.46989 37044 ft 526 kts 131°
2026-04-21 17:22 44.02360 26.55013 37045 ft 526 kts 128°
2026-04-21 17:22 43.98159 26.63350 37038 ft 527 kts 127°
2026-04-21 17:23 43.93932 26.71681 37044 ft 526 kts 127°
2026-04-21 17:23 43.89646 26.80013 37042 ft 533 kts 129°
2026-04-21 17:24 43.85385 26.88233 37040 ft 535 kts 129°
2026-04-21 17:24 43.81029 26.96617 37034 ft 537 kts 129°
2026-04-21 17:25 43.76658 27.05011 37034 ft 537 kts 129°
2026-04-21 17:25 43.72274 27.13406 37035 ft 537 kts 129°
2026-04-21 17:26 43.67895 27.21767 37035 ft 537 kts 129°
2026-04-21 17:26 43.63536 27.30065 37033 ft 537 kts 129°
2026-04-21 17:27 43.59146 27.38400 37028 ft 536 kts 129°
2026-04-21 17:27 43.54765 27.46693 37036 ft 536 kts 129°
2026-04-21 17:28 43.50452 27.54835 37041 ft 536 kts 129°
2026-04-21 17:28 43.46074 27.63076 37030 ft 535 kts 129°
2026-04-21 17:29 43.41851 27.71004 37020 ft 535 kts 129°
2026-04-21 17:29 43.37444 27.79255 37022 ft 535 kts 129°
2026-04-21 17:30 43.33022 27.87510 37019 ft 535 kts 129°
2026-04-21 17:30 43.28630 27.95688 37021 ft 535 kts 129°
2026-04-21 17:31 43.24204 28.03905 37019 ft 534 kts 129°
2026-04-21 17:31 43.19846 28.11973 37024 ft 534 kts 130°
2026-04-21 17:32 43.15411 28.20163 37034 ft 534 kts 130°
2026-04-21 17:32 43.10982 28.28319 37032 ft 533 kts 130°
2026-04-21 17:33 43.06567 28.36426 37033 ft 533 kts 130°
2026-04-21 17:33 43.02129 28.44552 37048 ft 533 kts 130°
2026-04-21 17:34 42.97678 28.52682 37044 ft 533 kts 130°
2026-04-21 17:34 42.93316 28.60626 37021 ft 532 kts 130°
2026-04-21 17:35 42.88868 28.68705 37021 ft 532 kts 130°
2026-04-21 17:35 42.84406 28.76788 37037 ft 532 kts 130°
2026-04-21 17:36 42.80069 28.84623 37032 ft 532 kts 130°
2026-04-21 17:36 42.75605 28.92666 37032 ft 532 kts 130°
2026-04-21 17:37 42.71136 29.00698 37032 ft 531 kts 130°
2026-04-21 17:37 42.66667 29.08707 37033 ft 531 kts 130°
2026-04-21 17:38 42.62195 29.16699 37029 ft 531 kts 130°
2026-04-21 17:38 42.57748 29.24627 37031 ft 530 kts 130°
2026-04-21 17:39 42.53269 29.32589 37031 ft 530 kts 130°
2026-04-21 17:39 42.48816 29.40484 37031 ft 529 kts 130°
2026-04-21 17:40 42.44331 29.48416 37028 ft 529 kts 130°
2026-04-21 17:40 42.39884 29.56264 37029 ft 528 kts 130°
2026-04-21 17:41 42.35973 29.64608 37027 ft 532 kts 116°
2026-04-21 17:41 42.33418 29.74038 37028 ft 533 kts 109°
2026-04-21 17:42 42.31032 29.83549 37024 ft 533 kts 110°
2026-04-21 17:42 42.28617 29.93034 37026 ft 533 kts 110°
2026-04-21 17:43 42.26204 30.02454 37029 ft 533 kts 110°
2026-04-21 17:43 42.23768 30.11928 37025 ft 533 kts 110°
2026-04-21 17:44 42.21329 30.21380 37017 ft 533 kts 110°
2026-04-21 17:44 42.18896 30.30769 37024 ft 533 kts 110°
2026-04-21 17:45 42.16441 30.40208 37021 ft 533 kts 110°
2026-04-21 17:45 42.13981 30.49629 37021 ft 533 kts 110°
2026-04-21 17:46 42.11152 30.60417 37018 ft 532 kts 110°
2026-04-21 17:46 42.08692 30.69756 37010 ft 532 kts 110°
2026-04-21 17:47 42.06207 30.79159 37020 ft 532 kts 110°
2026-04-21 17:47 42.03716 30.88545 37019 ft 532 kts 110°
2026-04-21 17:48 42.01217 30.97927 37014 ft 532 kts 111°
2026-04-21 17:48 41.98716 31.07290 37015 ft 532 kts 111°
2026-04-21 17:49 41.96210 31.16650 37006 ft 532 kts 111°
2026-04-21 17:49 41.93718 31.25925 36999 ft 532 kts 111°
2026-04-21 17:50 41.91198 31.35267 36997 ft 532 kts 111°
2026-04-21 17:50 41.88669 31.44607 37013 ft 531 kts 111°
2026-04-21 17:51 41.86137 31.53922 37000 ft 531 kts 111°
2026-04-21 17:51 41.83602 31.63212 37000 ft 531 kts 111°
2026-04-21 17:52 41.81055 31.72493 37000 ft 530 kts 111°
2026-04-21 17:52 41.78496 31.81758 36999 ft 530 kts 111°
2026-04-21 17:53 41.75936 31.91016 36996 ft 529 kts 111°
2026-04-21 17:53 41.73371 32.00257 37001 ft 529 kts 111°
2026-04-21 17:54 41.70810 32.09448 37000 ft 529 kts 111°
2026-04-21 17:54 41.68227 32.18687 37006 ft 528 kts 111°
2026-04-21 17:55 41.65665 32.27844 37006 ft 528 kts 111°
2026-04-21 17:55 41.63092 32.37039 37005 ft 528 kts 111°
2026-04-21 17:56 41.60494 32.46231 37005 ft 528 kts 111°
2026-04-21 17:56 41.57891 32.55401 37007 ft 527 kts 111°
2026-04-21 17:57 41.55284 32.64571 37004 ft 527 kts 111°
2026-04-21 17:57 41.52695 32.73649 37003 ft 527 kts 111°
2026-04-21 17:58 41.50078 32.82789 37002 ft 526 kts 112°
2026-04-21 17:58 41.47458 32.91906 37000 ft 526 kts 112°
2026-04-21 17:59 41.44669 33.00923 37007 ft 524 kts 118°
2026-04-21 17:59 41.41158 33.09355 37004 ft 523 kts 121°
2026-04-21 18:00 41.37620 33.17851 36999 ft 523 kts 120°
2026-04-21 18:00 41.34093 33.26334 36998 ft 523 kts 120°
2026-04-21 18:01 41.30682 33.34820 37000 ft 523 kts 119°
2026-04-21 18:01 41.27832 33.41953 36994 ft 523 kts 119°
2026-04-21 18:02 41.24461 33.50521 36996 ft 523 kts 119°
2026-04-21 18:02 41.21074 33.59105 36999 ft 523 kts 119°
2026-04-21 18:03 41.17677 33.67659 36999 ft 523 kts 119°
2026-04-21 18:03 41.14298 33.76138 36987 ft 522 kts 119°
2026-04-21 18:04 41.10875 33.84700 36984 ft 522 kts 120°
2026-04-21 18:04 41.07491 33.93140 36987 ft 521 kts 120°
2026-04-21 18:05 41.04082 34.01622 36977 ft 521 kts 120°
2026-04-21 18:05 41.00647 34.10143 36977 ft 521 kts 120°
2026-04-21 18:06 40.97255 34.18534 36970 ft 521 kts 120°
2026-04-21 18:06 40.93833 34.26972 36966 ft 521 kts 120°
2026-04-21 18:07 40.90404 34.35407 36963 ft 520 kts 120°
2026-04-21 18:07 40.86969 34.43830 36956 ft 520 kts 120°
2026-04-21 18:08 40.79082 34.63083 36955 ft 520 kts 120°
2026-04-21 18:08 40.75638 34.71493 36948 ft 521 kts 118°
2026-04-21 18:09 40.73146 34.80468 36956 ft 523 kts 107°
2026-04-21 18:09 40.71140 34.89706 36951 ft 523 kts 107°
2026-04-21 18:10 40.69103 34.98921 36952 ft 524 kts 107°
2026-04-21 18:10 40.67048 35.08142 36950 ft 524 kts 107°
2026-04-21 18:11 40.64984 35.17360 36953 ft 524 kts 107°
2026-04-21 18:11 40.62915 35.26564 36956 ft 524 kts 107°
2026-04-21 18:12 40.60839 35.35761 36957 ft 524 kts 107°
2026-04-21 18:12 40.58752 35.44969 36955 ft 525 kts 107°
2026-04-21 18:13 40.56659 35.54166 36955 ft 525 kts 108°
2026-04-21 18:13 40.54559 35.63357 36950 ft 525 kts 108°
2026-04-21 18:14 40.51394 35.77135 36951 ft 525 kts 108°
2026-04-21 18:15 40.49286 35.86265 36951 ft 526 kts 108°
2026-04-21 18:15 40.47157 35.95452 36956 ft 526 kts 108°
2026-04-21 18:16 40.45019 36.04637 36962 ft 526 kts 108°
2026-04-21 18:16 40.42871 36.13829 36966 ft 527 kts 108°
2026-04-21 18:17 40.40717 36.23011 36968 ft 527 kts 108°
2026-04-21 18:17 40.38552 36.32199 36967 ft 527 kts 108°
2026-04-21 18:18 40.36381 36.41380 36971 ft 528 kts 108°
2026-04-21 18:18 40.34195 36.50586 36974 ft 528 kts 108°
2026-04-21 18:19 40.32004 36.59774 36976 ft 528 kts 108°
2026-04-21 18:19 40.29805 36.68963 36977 ft 528 kts 108°
2026-04-21 18:20 40.27599 36.78146 36976 ft 528 kts 108°
2026-04-21 18:20 40.25386 36.87320 36979 ft 528 kts 108°
2026-04-21 18:21 40.23164 36.96491 36985 ft 529 kts 108°
2026-04-21 18:21 40.20931 37.05672 36987 ft 528 kts 108°
2026-04-21 18:22 40.18709 37.14776 36988 ft 528 kts 108°
2026-04-21 18:22 40.16467 37.23928 36989 ft 527 kts 108°
2026-04-21 18:23 40.12672 37.39339 36971 ft 527 kts 109°
2026-04-21 18:23 40.04574 37.69713 37018 ft 524 kts 111°
2026-04-21 18:24 40.02023 37.78506 36991 ft 509 kts 112°
2026-04-21 18:24 39.99495 37.87147 36997 ft 510 kts 112°
2026-04-21 18:25 39.96970 37.95730 36996 ft 510 kts 112°
2026-04-21 18:25 39.94416 38.04378 36992 ft 509 kts 112°
2026-04-21 18:26 39.91861 38.13006 36986 ft 508 kts 112°
2026-04-21 18:26 39.89325 38.21542 36981 ft 509 kts 112°
2026-04-21 18:27 39.86762 38.30137 36981 ft 508 kts 112°
2026-04-21 18:27 39.84203 38.38695 36982 ft 508 kts 112°
2026-04-21 18:28 39.81630 38.47272 36982 ft 507 kts 112°
2026-04-21 18:28 39.79070 38.55777 36981 ft 507 kts 112°
2026-04-21 18:29 39.76488 38.64329 36975 ft 507 kts 112°
2026-04-21 18:29 39.73922 38.72802 36979 ft 507 kts 112°
2026-04-21 18:30 39.71330 38.81332 36982 ft 507 kts 112°
2026-04-21 18:30 39.68733 38.89856 36984 ft 508 kts 112°
2026-04-21 18:31 39.66127 38.98378 36982 ft 506 kts 112°
2026-04-21 18:31 39.63518 39.06883 36980 ft 508 kts 112°
2026-04-21 18:32 39.60915 39.15343 36993 ft 507 kts 112°
2026-04-21 18:32 39.58291 39.23845 36995 ft 507 kts 113°
2026-04-21 18:33 39.55661 39.32341 37001 ft 506 kts 113°
2026-04-21 18:33 39.53045 39.40767 37006 ft 506 kts 113°
2026-04-21 18:34 39.50428 39.49237 37002 ft 507 kts 111°
2026-04-21 18:34 39.48218 39.57909 36998 ft 507 kts 108°
2026-04-21 18:35 39.46438 39.65129 36992 ft 505 kts 109°
2026-04-21 18:35 39.40407 39.88528 37012 ft 505 kts 109°
2026-04-21 18:36 39.32325 40.19427 37028 ft 504 kts 110°
2026-04-21 18:36 39.30091 40.28041 36989 ft 505 kts 109°
2026-04-21 18:37 39.27883 40.36619 36984 ft 506 kts 109°
2026-04-21 18:37 39.25656 40.45231 36985 ft 506 kts 109°
2026-04-21 18:38 39.23411 40.53858 36997 ft 505 kts 109°
2026-04-21 18:38 39.21177 40.62410 37009 ft 506 kts 110°
2026-04-21 18:39 39.18921 40.71014 36989 ft 506 kts 110°
2026-04-21 18:39 39.16659 40.79608 36997 ft 505 kts 110°
2026-04-21 18:40 39.14407 40.88142 37001 ft 505 kts 110°
2026-04-21 18:40 39.12522 40.95262 36990 ft 505 kts 110°
2026-04-21 18:41 39.09876 41.05215 36991 ft 504 kts 110°
2026-04-21 18:41 39.07594 41.13772 36991 ft 504 kts 110°
2026-04-21 18:42 39.05311 41.22307 36983 ft 504 kts 110°
2026-04-21 18:42 39.03021 41.30837 36980 ft 504 kts 110°
2026-04-21 18:43 39.00740 41.39304 36987 ft 504 kts 110°
2026-04-21 18:43 38.98442 41.47809 36997 ft 504 kts 110°
2026-04-21 18:44 38.96133 41.56320 37007 ft 504 kts 110°
2026-04-21 18:44 38.93821 41.64817 37010 ft 504 kts 110°
2026-04-21 18:45 38.91794 41.72242 37001 ft 504 kts 110°
2026-04-21 18:45 38.89468 41.80736 37008 ft 504 kts 110°
2026-04-21 18:46 38.87138 41.89216 37007 ft 504 kts 110°
2026-04-21 18:46 38.84801 41.97696 37005 ft 504 kts 110°
2026-04-21 18:47 38.82459 42.06164 36999 ft 504 kts 110°
2026-04-21 18:47 38.80506 42.13209 36995 ft 504 kts 111°
2026-04-21 18:48 38.78151 42.21673 36994 ft 504 kts 111°
2026-04-21 18:48 38.75787 42.30144 37001 ft 504 kts 111°
2026-04-21 18:49 38.73417 42.38609 36999 ft 505 kts 111°
2026-04-21 18:49 38.71442 42.45645 36996 ft 505 kts 111°
2026-04-21 18:50 38.68700 42.55377 36993 ft 505 kts 111°
2026-04-21 18:50 38.66310 42.63834 36992 ft 505 kts 111°
2026-04-21 18:51 38.63947 42.72168 36984 ft 505 kts 111°
2026-04-21 18:51 38.61545 42.80612 36982 ft 505 kts 111°
2026-04-21 18:52 38.59137 42.89047 36975 ft 505 kts 111°
2026-04-21 18:52 38.56721 42.97487 36987 ft 506 kts 111°
2026-04-21 18:53 38.54300 43.05918 36997 ft 506 kts 111°
2026-04-21 18:53 38.51884 43.14302 37009 ft 506 kts 111°
2026-04-21 18:54 38.49447 43.22734 37015 ft 506 kts 111°
2026-04-21 18:54 38.46964 43.31133 37019 ft 505 kts 114°
2026-04-21 18:55 38.44323 43.37825 37021 ft 503 kts 122°
2026-04-21 18:55 38.40337 43.46876 37018 ft 504 kts 121°
2026-04-21 18:56 38.36931 43.54678 37013 ft 503 kts 121°
2026-04-21 18:56 38.33522 43.62460 37009 ft 502 kts 121°
2026-04-21 18:57 38.30207 43.70003 37003 ft 503 kts 121°
2026-04-21 18:57 38.26868 43.77582 37003 ft 503 kts 121°
2026-04-21 18:58 38.23534 43.85410 37001 ft 504 kts 120°
2026-04-21 18:58 38.20280 43.93303 37000 ft 503 kts 120°
2026-04-21 18:59 38.17081 44.00987 36994 ft 503 kts 120°
2026-04-21 18:59 38.13875 44.08635 36989 ft 503 kts 120°
2026-04-21 19:00 38.10577 44.16475 36986 ft 503 kts 120°
2026-04-21 19:00 38.07275 44.24309 36976 ft 503 kts 120°
2026-04-21 19:01 38.03983 44.32141 36967 ft 503 kts 118°
2026-04-21 19:01 38.01062 44.40101 36964 ft 503 kts 116°
2026-04-21 19:02 37.98157 44.48186 36957 ft 504 kts 117°
2026-04-21 19:02 37.95194 44.56246 36944 ft 504 kts 117°
2026-04-21 19:03 37.92213 44.64281 36957 ft 504 kts 117°
2026-04-21 19:03 37.89266 44.72201 36951 ft 505 kts 117°
2026-04-21 19:04 37.86268 44.80243 36931 ft 505 kts 117°
2026-04-21 19:04 37.83271 44.88271 36937 ft 505 kts 117°
2026-04-21 19:05 37.80269 44.96294 36975 ft 504 kts 117°
2026-04-21 19:05 37.77257 45.04317 36971 ft 505 kts 117°
2026-04-21 19:06 37.74244 45.12325 36967 ft 505 kts 118°
2026-04-21 19:06 37.71225 45.20325 36969 ft 505 kts 118°
2026-04-21 19:07 37.68219 45.28271 36963 ft 505 kts 118°
2026-04-21 19:07 37.65169 45.36313 36949 ft 504 kts 118°
2026-04-21 19:08 37.62135 45.44291 36924 ft 505 kts 118°
2026-04-21 19:08 37.58940 45.52670 36900 ft 505 kts 118°
2026-04-21 19:08 37.52088 45.68228 36907 ft 498 kts 135°
2026-04-21 19:09 37.40973 45.78069 36918 ft 488 kts 153°
2026-04-21 19:09 37.18108 45.96096 36965 ft 489 kts 149°
2026-04-21 19:10 36.95550 46.15126 36974 ft 489 kts 150°
2026-04-21 19:10 36.72919 46.33999 36967 ft 489 kts 151°
2026-04-21 19:11 36.50306 46.52716 36992 ft 488 kts 152°
2026-04-21 19:11 36.27633 46.71351 36988 ft 489 kts 152°
2026-04-21 19:12 36.08549 46.86933 37019 ft 490 kts 152°
2026-04-21 19:12 35.82040 47.08334 36994 ft 490 kts 153°
2026-04-21 19:13 35.59248 47.26592 36987 ft 488 kts 153°
2026-04-21 19:13 35.36476 47.44707 36985 ft 487 kts 154°
2026-04-21 19:14 35.13703 47.62703 37022 ft 487 kts 154°
2026-04-21 19:14 34.90941 47.80717 37007 ft 488 kts 154°
2026-04-21 19:15 34.68333 47.98535 37009 ft 488 kts 154°
2026-04-21 19:15 34.45499 48.16418 37050 ft 488 kts 155°
2026-04-21 19:16 34.22626 48.34213 37042 ft 488 kts 155°
2026-04-21 19:16 33.99765 48.51878 37037 ft 488 kts 156°
2026-04-21 19:17 33.87237 48.61510 37045 ft 487 kts 156°
2026-04-21 19:17 33.81513 48.65899 37055 ft 488 kts 156°
2026-04-21 19:18 33.75779 48.70291 37042 ft 488 kts 156°
2026-04-21 19:18 33.66290 48.77543 37049 ft 490 kts 156°
2026-04-21 19:19 33.59490 48.82730 37049 ft 489 kts 156°
2026-04-21 19:19 33.53740 48.87102 37050 ft 490 kts 156°
2026-04-21 19:20 33.47983 48.91478 37055 ft 490 kts 156°
2026-04-21 19:20 33.42218 48.95852 37054 ft 490 kts 156°
2026-04-21 19:21 33.36455 49.00216 37062 ft 491 kts 156°
2026-04-21 19:21 33.30679 49.04583 37067 ft 491 kts 156°
2026-04-21 19:22 33.25006 49.09146 37070 ft 497 kts 152°
2026-04-21 19:22 33.19436 49.14055 37075 ft 496 kts 152°
2026-04-21 19:23 33.13857 49.18895 37070 ft 494 kts 152°
2026-04-21 19:23 33.08268 49.23682 37075 ft 497 kts 153°
2026-04-21 19:24 33.02657 49.28474 37080 ft 496 kts 153°
2026-04-21 19:24 32.97104 49.33208 37089 ft 497 kts 153°
2026-04-21 19:25 32.91525 49.37956 37079 ft 496 kts 153°
2026-04-21 19:25 32.85911 49.42720 37088 ft 496 kts 153°
2026-04-21 19:26 32.80292 49.47485 37089 ft 495 kts 153°
2026-04-21 19:26 32.74688 49.52234 37099 ft 495 kts 153°
2026-04-21 19:27 32.69073 49.56983 37105 ft 494 kts 153°
2026-04-21 19:27 32.63477 49.61710 37101 ft 496 kts 153°
2026-04-21 19:28 32.57854 49.66455 37107 ft 496 kts 153°
2026-04-21 19:28 32.52238 49.71180 37111 ft 495 kts 153°
2026-04-21 19:29 32.46605 49.75912 37110 ft 497 kts 153°
2026-04-21 19:29 32.40963 49.80653 37111 ft 497 kts 153°
2026-04-21 19:30 32.35323 49.85374 37115 ft 497 kts 153°
2026-04-21 19:30 32.29666 49.90101 37107 ft 497 kts 153°
2026-04-21 19:31 32.24062 49.94781 37109 ft 493 kts 154°
2026-04-21 19:31 32.18440 49.99466 37117 ft 495 kts 154°
2026-04-21 19:32 32.12815 50.04153 37117 ft 496 kts 154°
2026-04-21 19:32 32.07148 50.08869 37091 ft 497 kts 153°
2026-04-21 19:33 32.01490 50.13569 37123 ft 501 kts 154°
2026-04-21 19:33 31.95779 50.18292 37119 ft 501 kts 153°
2026-04-21 19:34 31.90063 50.23021 37119 ft 502 kts 153°
2026-04-21 19:34 31.84412 50.27696 37117 ft 502 kts 153°
2026-04-21 19:35 31.76995 50.33810 37119 ft 502 kts 153°
2026-04-21 19:36 31.71265 50.38521 37117 ft 504 kts 153°
2026-04-21 19:36 31.65536 50.43229 37117 ft 505 kts 153°
2026-04-21 19:37 31.59948 50.47821 37102 ft 506 kts 153°
2026-04-21 19:37 31.54298 50.52453 37130 ft 506 kts 153°
2026-04-21 19:38 31.48750 50.56986 37118 ft 503 kts 153°
2026-04-21 19:38 31.42999 50.61681 37118 ft 504 kts 153°
2026-04-21 19:39 31.37244 50.66375 37116 ft 504 kts 154°
2026-04-21 19:39 31.31538 50.71023 37117 ft 499 kts 154°
2026-04-21 19:40 31.25957 50.75556 37109 ft 504 kts 154°
2026-04-21 19:40 31.20334 50.80132 37108 ft 501 kts 154°
2026-04-21 19:41 31.14597 50.84784 37111 ft 500 kts 154°
2026-04-21 19:41 31.08904 50.89391 37104 ft 499 kts 154°
2026-04-21 19:42 31.03227 50.93981 37101 ft 498 kts 154°
2026-04-21 19:42 30.97490 50.98600 37102 ft 501 kts 154°
2026-04-21 19:43 30.91831 51.03173 37087 ft 502 kts 154°
2026-04-21 19:43 30.86203 51.07707 37097 ft 501 kts 154°
2026-04-21 19:44 30.80460 51.12325 37095 ft 502 kts 154°
2026-04-21 19:44 30.74771 51.16888 37092 ft 499 kts 154°
2026-04-21 19:45 30.69016 51.21500 37097 ft 502 kts 154°
2026-04-21 19:45 30.63273 51.26101 37094 ft 502 kts 154°
2026-04-21 19:46 30.57532 51.30691 37091 ft 499 kts 154°
2026-04-21 19:46 30.51813 51.35258 37083 ft 499 kts 154°
2026-04-21 19:47 30.46123 51.39799 37075 ft 494 kts 154°
2026-04-21 19:47 30.40287 51.43913 37060 ft 487 kts 162°
2026-04-21 19:48 30.34132 51.46867 37026 ft 475 kts 169°
2026-04-21 19:48 30.27924 51.49579 37021 ft 480 kts 168°
2026-04-21 19:49 30.21730 51.52321 37021 ft 479 kts 168°
2026-04-21 19:49 30.15508 51.55075 37019 ft 479 kts 168°
2026-04-21 19:50 30.10326 51.57363 37015 ft 479 kts 168°
2026-04-21 19:50 30.03030 51.60577 37014 ft 479 kts 168°
2026-04-21 19:51 29.96811 51.63315 37015 ft 478 kts 168°
2026-04-21 19:51 29.90580 51.66053 37019 ft 480 kts 168°
2026-04-21 19:52 29.84358 51.68787 37015 ft 479 kts 168°
2026-04-21 19:52 29.78184 51.71491 37013 ft 479 kts 168°
2026-04-21 19:53 29.71952 51.74218 37014 ft 479 kts 169°
2026-04-21 19:53 29.65732 51.76937 37010 ft 476 kts 168°
2026-04-21 19:54 29.59539 51.79644 37015 ft 477 kts 169°
2026-04-21 19:54 29.53544 51.82253 37011 ft 480 kts 169°
2026-04-21 19:55 29.47311 51.84969 37008 ft 479 kts 169°
2026-04-21 19:55 29.41076 51.87680 37010 ft 480 kts 169°
2026-04-21 19:56 29.34823 51.90396 37006 ft 480 kts 169°
2026-04-21 19:56 29.28618 51.93087 37007 ft 480 kts 169°
2026-04-21 19:57 29.22412 51.95775 37003 ft 480 kts 169°
2026-04-21 19:57 29.16153 51.98481 37004 ft 481 kts 169°
2026-04-21 19:58 29.09890 52.01188 36997 ft 481 kts 169°
2026-04-21 19:58 29.03620 52.03893 37005 ft 481 kts 169°
2026-04-21 19:59 28.97348 52.06596 36998 ft 482 kts 169°
2026-04-21 19:59 28.88819 52.10656 36998 ft 494 kts 161°
2026-04-21 19:59 28.82927 52.14854 37001 ft 501 kts 156°
2026-04-21 20:00 28.71146 52.23393 37000 ft 502 kts 157°
2026-04-21 20:00 28.51515 52.37513 36958 ft 503 kts 157°
2026-04-21 20:00 28.39676 52.45990 36177 ft 502 kts 156°
2026-04-21 20:01 28.27913 52.54384 35202 ft 499 kts 156°
2026-04-21 20:01 28.21409 52.59020 34771 ft 497 kts 156°
2026-04-21 20:01 28.18527 52.61072 34594 ft 496 kts 156°
2026-04-21 20:01 28.15608 52.63149 34401 ft 495 kts 156°
2026-04-21 20:02 28.12653 52.65249 34209 ft 494 kts 156°
2026-04-21 20:02 28.09791 52.67282 34017 ft 493 kts 156°
2026-04-21 20:02 28.06882 52.69347 33793 ft 492 kts 156°
2026-04-21 20:02 28.03983 52.71404 33586 ft 493 kts 155°
2026-04-21 20:03 28.01076 52.73465 33377 ft 493 kts 155°
2026-04-21 20:03 27.98166 52.75527 33167 ft 494 kts 155°
2026-04-21 20:03 27.95251 52.77591 32954 ft 494 kts 155°
2026-04-21 20:03 27.92334 52.79656 32750 ft 495 kts 155°
2026-04-21 20:04 27.89435 52.81708 32547 ft 495 kts 155°
2026-04-21 20:04 27.86511 52.83775 32330 ft 496 kts 155°
2026-04-21 20:04 27.83575 52.85845 32129 ft 498 kts 155°
2026-04-21 20:04 27.80631 52.87923 31926 ft 500 kts 154°
2026-04-21 20:05 27.77676 52.90010 31728 ft 500 kts 154°
2026-04-21 20:05 27.74723 52.92096 31523 ft 500 kts 154°
2026-04-21 20:05 27.71774 52.94176 31325 ft 499 kts 154°
2026-04-21 20:05 27.68830 52.96250 31131 ft 498 kts 154°
2026-04-21 20:06 27.65891 52.98320 30918 ft 497 kts 154°
2026-04-21 20:06 27.62959 53.00383 30738 ft 496 kts 154°
2026-04-21 20:06 27.60029 53.02442 30567 ft 495 kts 154°
2026-04-21 20:06 27.57108 53.04493 30424 ft 494 kts 154°
2026-04-21 20:07 27.54228 53.06515 30280 ft 492 kts 154°
2026-04-21 20:07 27.51327 53.08550 30138 ft 491 kts 154°
2026-04-21 20:07 27.48427 53.10583 29986 ft 490 kts 154°
2026-04-21 20:07 27.45537 53.12608 29823 ft 489 kts 154°
2026-04-21 20:08 27.42660 53.14623 29648 ft 487 kts 154°
2026-04-21 20:08 27.39771 53.16609 29472 ft 484 kts 156°
2026-04-21 20:08 27.36775 53.18272 29305 ft 477 kts 163°
2026-04-21 20:08 27.33672 53.19537 29140 ft 470 kts 169°
2026-04-21 20:09 27.30524 53.20494 28973 ft 468 kts 171°
2026-04-21 20:09 27.27380 53.21439 28807 ft 467 kts 171°
2026-04-21 20:09 27.24241 53.22395 28639 ft 467 kts 171°
2026-04-21 20:09 27.21107 53.23355 28481 ft 466 kts 171°
2026-04-21 20:10 27.18023 53.24303 28304 ft 465 kts 170°
2026-04-21 20:10 27.14904 53.25261 28155 ft 464 kts 170°
2026-04-21 20:10 27.11792 53.26216 27987 ft 463 kts 170°
2026-04-21 20:10 27.08683 53.27170 27826 ft 462 kts 170°
2026-04-21 20:11 27.05588 53.28119 27667 ft 461 kts 170°
2026-04-21 20:11 27.02491 53.29067 27504 ft 461 kts 170°
2026-04-21 20:11 26.99404 53.30012 27347 ft 459 kts 170°
2026-04-21 20:11 26.96322 53.30955 27031 ft 458 kts 170°
2026-04-21 20:12 26.93258 53.31892 26734 ft 455 kts 170°
2026-04-21 20:12 26.90220 53.32821 26440 ft 452 kts 170°
2026-04-21 20:12 26.88168 53.33448 26232 ft 451 kts 170°
2026-04-21 20:12 26.84174 53.34727 25844 ft 451 kts 166°
2026-04-21 20:13 26.81280 53.36136 25549 ft 455 kts 157°
2026-04-21 20:13 26.78589 53.38026 25255 ft 459 kts 148°
2026-04-21 20:13 26.76130 53.40301 24944 ft 459 kts 144°
2026-04-21 20:13 26.73706 53.42622 24634 ft 457 kts 144°
2026-04-21 20:14 26.71288 53.44918 24334 ft 455 kts 144°
2026-04-21 20:14 26.68878 53.47192 24041 ft 452 kts 144°
2026-04-21 20:14 26.66478 53.49450 23748 ft 450 kts 144°
2026-04-21 20:14 26.64084 53.51698 23453 ft 448 kts 144°
2026-04-21 20:15 26.61709 53.53927 23149 ft 445 kts 144°
2026-04-21 20:15 26.59338 53.56151 22894 ft 443 kts 144°
2026-04-21 20:15 26.56982 53.58360 22623 ft 442 kts 144°
2026-04-21 20:15 26.54554 53.60427 22371 ft 437 kts 150°
2026-04-21 20:16 26.52028 53.62319 22106 ft 436 kts 150°
2026-04-21 20:16 26.49520 53.64203 21857 ft 434 kts 150°
2026-04-21 20:16 26.47020 53.66086 21597 ft 433 kts 150°
2026-04-21 20:16 26.44529 53.67966 21343 ft 431 kts 150°
2026-04-21 20:17 26.42044 53.69841 21110 ft 430 kts 150°
2026-04-21 20:17 26.39569 53.71708 20964 ft 429 kts 150°
2026-04-21 20:17 26.37129 53.73547 20816 ft 429 kts 150°
2026-04-21 20:17 26.34662 53.75406 20664 ft 428 kts 150°
2026-04-21 20:18 26.32998 53.76660 20567 ft 427 kts 150°
2026-04-21 20:18 26.29739 53.79115 20374 ft 427 kts 150°
2026-04-21 20:18 26.27272 53.80973 20222 ft 426 kts 150°
2026-04-21 20:18 26.24819 53.82819 20083 ft 426 kts 150°
2026-04-21 20:19 26.22371 53.84661 19961 ft 425 kts 150°
2026-04-21 20:19 26.19916 53.86506 19850 ft 425 kts 150°
2026-04-21 20:19 26.17467 53.88346 19725 ft 425 kts 150°
2026-04-21 20:19 26.15020 53.90184 19607 ft 424 kts 150°
2026-04-21 20:20 26.12576 53.92018 19483 ft 423 kts 150°
2026-04-21 20:20 26.10144 53.93860 19363 ft 424 kts 148°
2026-04-21 20:20 26.07927 53.96042 19251 ft 428 kts 136°
2026-04-21 20:20 26.06719 53.97680 19175 ft 431 kts 128°
2026-04-21 20:21 26.05160 54.00625 19062 ft 432 kts 119°
2026-04-21 20:21 26.03786 54.03592 18947 ft 432 kts 119°
2026-04-21 20:21 26.02399 54.06555 18832 ft 431 kts 120°
2026-04-21 20:21 26.01007 54.09501 18712 ft 430 kts 120°
2026-04-21 20:22 25.99608 54.12444 18436 ft 429 kts 120°
2026-04-21 20:22 25.96835 54.18264 17674 ft 422 kts 120°
2026-04-21 20:22 25.95464 54.21139 17283 ft 419 kts 120°
2026-04-21 20:23 25.94105 54.23988 16899 ft 416 kts 120°
2026-04-21 20:23 25.92754 54.26816 16514 ft 412 kts 120°
2026-04-21 20:23 25.91530 54.29681 16149 ft 411 kts 114°
2026-04-21 20:23 25.90585 54.32669 15789 ft 409 kts 111°
2026-04-21 20:24 25.89658 54.35654 15429 ft 406 kts 111°
2026-04-21 20:24 25.88736 54.38604 15068 ft 403 kts 111°
2026-04-21 20:24 25.87815 54.41534 14711 ft 400 kts 111°
2026-04-21 20:24 25.86910 54.44412 14364 ft 388 kts 111°
2026-04-21 20:25 25.86048 54.47157 14027 ft 375 kts 112°
2026-04-21 20:25 25.85204 54.49845 13676 ft 363 kts 112°
2026-04-21 20:25 25.84384 54.52447 13302 ft 351 kts 112°
2026-04-21 20:25 25.83590 54.54959 13003 ft 339 kts 112°
2026-04-21 20:26 25.82825 54.57381 12688 ft 326 kts 112°
2026-04-21 20:26 25.82075 54.59750 12393 ft 324 kts 112°
2026-04-21 20:26 25.81325 54.62110 12159 ft 324 kts 112°
2026-04-21 20:26 25.80577 54.64465 11970 ft 322 kts 112°
2026-04-21 20:27 25.79646 54.66700 11765 ft 317 kts 126°
2026-04-21 20:27 25.78278 54.68584 11576 ft 311 kts 140°
2026-04-21 20:27 25.76709 54.70177 11392 ft 309 kts 142°
2026-04-21 20:27 25.75126 54.71795 11139 ft 309 kts 141°
2026-04-21 20:28 25.73557 54.73425 10796 ft 308 kts 141°
2026-04-21 20:28 25.72015 54.75042 10534 ft 302 kts 141°
2026-04-21 20:28 25.70481 54.76654 10306 ft 304 kts 141°
2026-04-21 20:28 25.68945 54.78268 10070 ft 303 kts 141°
2026-04-21 20:29 25.67424 54.79867 9879 ft 300 kts 141°
2026-04-21 20:29 25.65921 54.81446 9837 ft 301 kts 141°
2026-04-21 20:29 25.64393 54.83048 9834 ft 301 kts 141°
2026-04-21 20:29 25.62865 54.84650 9682 ft 302 kts 141°
2026-04-21 20:30 25.61465 54.86348 9427 ft 302 kts 130°
2026-04-21 20:30 25.60397 54.88362 9161 ft 304 kts 117°
2026-04-21 20:30 25.59584 54.90533 8952 ft 303 kts 115°
2026-04-21 20:30 25.58772 54.92695 8773 ft 302 kts 115°
2026-04-21 20:31 25.57953 54.94836 8600 ft 302 kts 116°
2026-04-21 20:31 25.57128 54.96964 8349 ft 300 kts 116°
2026-04-21 20:31 25.56303 54.99080 8100 ft 298 kts 116°
2026-04-21 20:31 25.55491 55.01159 8012 ft 296 kts 116°
2026-04-21 20:32 25.54664 55.03259 8001 ft 297 kts 117°
2026-04-21 20:32 25.53673 55.05255 7995 ft 296 kts 123°
2026-04-21 20:32 25.52636 55.07223 7999 ft 296 kts 123°
2026-04-21 20:32 25.51599 55.09200 7994 ft 296 kts 122°
2026-04-21 20:33 25.50571 55.11171 7997 ft 296 kts 122°
2026-04-21 20:33 25.49542 55.13151 8000 ft 296 kts 122°
2026-04-21 20:33 25.48514 55.15131 8003 ft 296 kts 122°
2026-04-21 20:33 25.47490 55.17106 7999 ft 296 kts 122°
2026-04-21 20:34 25.46482 55.19041 7999 ft 296 kts 123°
2026-04-21 20:34 25.45279 55.20884 8001 ft 294 kts 134°
2026-04-21 20:34 25.43899 55.22551 8004 ft 294 kts 135°
2026-04-21 20:34 25.42522 55.24217 7998 ft 293 kts 135°
2026-04-21 20:35 25.41151 55.25887 7998 ft 293 kts 135°
2026-04-21 20:35 25.39777 55.27571 7997 ft 293 kts 134°
2026-04-21 20:35 25.38412 55.29248 7998 ft 294 kts 134°
2026-04-21 20:35 25.37063 55.30904 7999 ft 293 kts 134°
2026-04-21 20:36 25.35608 55.32477 7998 ft 291 kts 143°
2026-04-21 20:36 25.33929 55.33723 7878 ft 289 kts 154°
2026-04-21 20:36 25.32145 55.34736 7636 ft 287 kts 155°
2026-04-21 20:36 25.30439 55.35708 7413 ft 286 kts 155°
2026-04-21 20:37 25.28672 55.36727 7179 ft 285 kts 154°
2026-04-21 20:37 25.26924 55.37745 6947 ft 284 kts 154°
2026-04-21 20:37 25.25198 55.38754 6718 ft 283 kts 154°
2026-04-21 20:37 25.23455 55.39775 6483 ft 282 kts 153°
2026-04-21 20:38 25.21800 55.40745 6265 ft 281 kts 153°
2026-04-21 20:38 25.20075 55.41756 6051 ft 280 kts 153°
2026-04-21 20:38 25.18452 55.42710 5864 ft 270 kts 153°
2026-04-21 20:38 25.16853 55.43647 5665 ft 251 kts 153°
2026-04-21 20:39 25.15356 55.44524 5476 ft 235 kts 153°
2026-04-21 20:39 25.13988 55.45323 5283 ft 224 kts 153°
2026-04-21 20:39 25.12639 55.46106 5087 ft 215 kts 153°
2026-04-21 20:39 25.11410 55.46918 4892 ft 208 kts 141°
2026-04-21 20:40 25.10476 55.48094 4704 ft 202 kts 121°
2026-04-21 20:40 25.09789 55.49417 4560 ft 195 kts 120°
2026-04-21 20:40 25.09124 55.50679 4409 ft 189 kts 120°
2026-04-21 20:40 25.08444 55.51927 4307 ft 192 kts 121°
2026-04-21 20:41 25.07818 55.53064 4192 ft 188 kts 120°
2026-04-21 20:41 25.07448 55.54427 4031 ft 190 kts 89°
2026-04-21 20:41 25.07816 55.55782 3755 ft 193 kts 57°
2026-04-21 20:41 25.08845 55.56762 3386 ft 200 kts 32°
2026-04-21 20:42 25.10108 55.57471 2969 ft 208 kts 17°
2026-04-21 20:42 25.11562 55.57435 2629 ft 214 kts 344°
2026-04-21 20:42 25.12810 55.56565 2322 ft 213 kts 321°
2026-04-21 20:42 25.13890 55.55485 2056 ft 210 kts 311°
2026-04-21 20:43 25.14797 55.54283 1994 ft 196 kts 311°
2026-04-21 20:43 25.15624 55.53173 1991 ft 179 kts 308°
2026-04-21 20:43 25.16354 55.52144 2022 ft 169 kts 310°
2026-04-21 20:43 25.17039 55.51157 1992 ft 157 kts 307°
2026-04-21 20:44 25.17653 55.50163 1984 ft 164 kts 304°
2026-04-21 20:44 25.18259 55.49109 1979 ft 165 kts 304°
2026-04-21 20:44 25.18858 55.48048 1777 ft 158 kts 303°
2026-04-21 20:44 25.19443 55.46994 1585 ft 166 kts 303°
2026-04-21 20:45 25.20030 55.45935 1364 ft 157 kts 303°
2026-04-21 20:45 25.20609 55.44888 1162 ft 158 kts 303°
2026-04-21 20:45 25.21178 55.43860 975 ft 159 kts 303°
2026-04-21 20:45 25.21738 55.42849 768 ft 149 kts 302°
2026-04-21 20:46 25.22261 55.41877 610 ft 148 kts 301°
2026-04-21 20:46 25.22787 55.40926 391 ft 144 kts 302°
2026-04-21 20:46 25.23339 55.39930 217 ft 148 kts 301°
2026-04-21 20:46 25.23862 55.38998 74 ft 145 kts 303°
2026-04-21 20:47 25.24288 55.38224 53 ft 75 kts 301°
2026-04-21 20:47 25.24489 55.37868 49 ft 54 kts 302°
2026-04-21 20:47 25.24611 55.37527 41 ft 33 kts 278°
2026-04-21 20:47 25.24616 55.37424 40 ft 0 kts 272°
2026-04-21 20:48 25.24618 55.37359 39 ft 13 kts 272°
2026-04-21 20:48 25.24626 55.37263 39 ft 10 kts 280°
2026-04-21 20:49 25.24655 55.37187 39 ft 13 kts 282°
2026-04-21 20:49 25.24632 55.37125 38 ft 7 kts 216°
2026-04-21 20:49 25.24585 55.37092 38 ft 0 kts 214°
2026-04-21 20:49 25.24569 55.37081 38 ft 6 kts 214°